Location: Newark
(43.0400°N, 13.0400°E)
Time: 08:12:34
(UTC+00:00)

ISS - Visible Passes

Search period start: 30 September 2020 00:00
Search period end: 10 October 2020 00:00
Orbit: 419 x 421 km, 51.6° (Epoch: 30 September)

Date Brightness Start Highest point End Pass type
(mag) Time Alt. Az. Time Alt. Az. Time Alt. Az.
30 Sep -2.4 18:17:36 10° NW 18:20:33 27° NNE 18:21:08 26° NE visible
01 Oct -2.0 17:30:20 10° NW 17:33:06 23° NNE 17:35:41 11° ENE visible
01 Oct -1.7 19:06:56 10° NW 19:08:39 27° NW 19:08:39 27° NW visible
02 Oct -3.5 18:19:40 10° NW 18:22:59 50° NNE 18:23:14 49° NE visible
03 Oct -2.8 17:32:25 10° NW 17:35:34 35° NNE 17:37:52 16° E visible
03 Oct -1.4 19:09:15 10° WNW 19:10:50 23° W 19:10:50 23° W visible
04 Oct -3.6 18:21:48 10° WNW 18:25:09 64° SW 18:25:33 57° S visible
05 Oct -3.8 17:34:27 10° NW 17:37:49 79° NNE 17:40:21 17° ESE visible
05 Oct -0.7 19:12:24 10° W 19:13:21 13° WSW 19:13:21 13° WSW visible
06 Oct -1.7 18:24:20 10° W 18:27:03 23° SW 18:28:16 19° SSW visible
07 Oct -2.4 17:36:40 10° WNW 17:39:49 37° SW 17:42:57 10° SSE visible
09 Oct -0.8 17:39:46 10° W 17:41:34 14° SW 17:43:20 10° SSW visible
